Regional Weather Roundup
Issued by NWS

Home | Current Version | Previous Version | Graphics & Text | Print | Product List | Glossary On
Versions: 1 2 3 4 5 6 7 8 9 10 11 12 13 14 15 16 17 18 19 20 21 22 23 24 25 26 27 28 29 30 31 32 33 34 35 36 37 38 39 40 41 42 43 44 45 46 47 48 49 50
237
ASUS43 KLOT 261003
RWRIL

ILLINOIS REGIONAL WEATHER ROUNDUP
NATIONAL WEATHER SERVICE CHICAGO/ROMEOVILLE IL
500 AM CDT SUN MAR 26 2017

NOTE: "FAIR" INDICATES FEW OR NO CLOUDS BELOW 12,000 FEET WITH NO
SIGNIFICANT WEATHER AND/OR OBSTRUCTIONS TO VISIBILITY.

* THESE STATIONS ARE NOT UNDER NWS QUALITY CONTROL. THEY ALSO MAY NOT
  REPORT WEATHER SUCH AS PRECIPITATION OR FOG.

ILZ001-002-007-009-015-016-024-261100-
NORTHWEST ILLINOIS

CITY           SKY/WX    TMP DP  RH WIND       PRES   REMARKS
MOLINE         FOG       49  47  93 E8        29.79F VSB 1/4
STERLING*      LGT RAIN  50  50 100 E8        29.82F FOG
SAVANNA*       CLOUDY    46  45  99 NE9       29.83S FOG
$$

ILZ003-004-008-010-011-017-018-261100-
NORTH CENTRAL ILLINOIS

CITY           SKY/WX    TMP DP  RH WIND       PRES   REMARKS
ROCKFORD       CLOUDY    47  45  93 E7        29.86F FOG
FREEPORT*      FOG       43  43  99 E8        29.86F VSB 1/2
ROCHELLE*      CLOUDY    49  49  99 E8        29.84S FOG
DE KALB*       FOG       48  47  99 E9        29.85F VSB 1/2
PERU*          LGT RAIN  53  52  95 SE8       29.82F
$$

ILZ005-006-012>014-019>023-261100-
NORTHEAST ILLINOIS

CITY           SKY/WX    TMP DP  RH WIND       PRES   REMARKS
CHICAGO-OHARE  LGT RAIN  47  45  93 NE6       29.86F FOG
CHICAGO-MIDWAY CLOUDY    49  48  97 E6        29.87F FOG
AURORA         CLOUDY    50  49  96 NE7       29.84F FOG
LANSING*       LGT RAIN  51  51 100 SE12      29.87F
JOLIET*        CLOUDY    55  55  98 SE8       29.85S FOG
WAUKEGAN       FOG       41  41 100 NE7       29.89F VSB 1/4
DUPAGE AIRPORT CLOUDY    48  48 100 NE6       29.85F FOG
KANKAKEE*      CLOUDY    55  54  97 SE13      29.86S FOG
WHEELING       CLOUDY    44  44 100 NE3       29.88F FOG
MORRIS*        CLOUDY    54  53  95 SE7       29.83S FOG
ROMEOVILLE*    CLOUDY    53  53 100 SE9       29.85S
$$

LMZ740>746-261100-
SOUTHERN LAKE MICHIGAN

STATION/POSITION SKY/WX   TEMP    WIND        PRES    VSBY  WAVE
                          AIR SEA DIR/SP/G                  HT/PER
                          (F)     (DEG/KT/KT) (MB)    (MI)  (FT/S)
HARRISON CRIB              44     110/ 12/ 12   N/A
BURNHAM HARBOR             43      20/  1/  4   N/A
CALUMET HARBOR             46     110/  5/  7 1011.2F
BURNS HARBOR               51     140/ 11/ 14 1012.5F
MICHIGAN CITY              48     110/ 10/ 12   N/A
$$

ILZ025>027-034>036-040-047-049-050-058-095>099-261100-
WEST-CENTRAL ILLINOIS

CITY           SKY/WX    TMP DP  RH WIND       PRES   REMARKS
QUINCY         LGT RAIN  51  51 100 S9        29.79R FOG
GALESBURG*     CLOUDY    53  53  99 CALM      29.78S
MACOMB*        CLOUDY    54  53  97 S10       29.80S
JACKSONVILLE*  CLOUDY    51  49  91 S9        29.82S
PITTSFIELD*    DRIZZLE   51  49  95 S7        29.83R
$$

ILZ028>032-037-038-041>044-048-051>054-059>061-261100-
CENTRAL ILLINOIS

CITY           SKY/WX    TMP DP  RH WIND       PRES   REMARKS
PONTIAC        CLOUDY    55  55  99 SE6       29.84S
BLOOMINGTON    CLOUDY    55  53  93 S8        29.84S
DECATUR        CLOUDY    56  53  90 S8        29.84R
PEORIA         CLOUDY    54  52  93 S13       29.81S
LACON*         CLOUDY    55  55 100 SE7       29.80S
LINCOLN*       CLOUDY    54  53  99 S3        29.83S
SPRINGFIELD    MOCLDY    52  51  97 S6        29.83R
TAYLORVILLE    CLOUDY    52  52 100 S8        29.84R
$$

ILZ033-039-045-046-055>057-062-063-261100-
EAST-CENTRAL ILLINOIS

CITY           SKY/WX    TMP DP  RH WIND       PRES   REMARKS
CHAMPAIGN      CLOUDY    58  53  84 S8        29.84S
RANTOUL*       CLOUDY    58  57  97 S7        29.85S
MATTOON        CLOUDY    57  53  86 S7        29.85S
PARIS*         CLOUDY    57  57  99 S10       29.87S
$$

ILZ079-100>102-261100-
SOUTHWEST ILLINOIS

CITY           SKY/WX    TMP DP  RH WIND       PRES   REMARKS
ALTON          CLOUDY    52  49  90 SW9       29.85S
CAHOKIA*       CLOUDY    54  49  83 CALM      29.84F
SPARTA*        CLOUDY    54  52  94 CALM      29.87S
$$

ILZ064>066-069>071-074>076-080>082-084>086-088>090-092>094-261100-
SOUTH-CENTRAL ILLINOIS

CITY           SKY/WX    TMP DP  RH WIND       PRES   REMARKS
CARBONDALE     CLOUDY    54  54 100 S5        29.87R
CAIRO*         CLOUDY    54  54  98 SW5       29.89R
EFFINGHAM*     CLOUDY    57  56  97 S5        29.88R
MARION         CLOUDY    55  55 100 S6        29.88S
MT. VERNON     CLOUDY    56  55  97 S8        29.87R
CENTRALIA*     CLOUDY    56  55  99 CALM      29.85S
SALEM*         CLOUDY    57  54  89 S9        29.86R
METROPOLIS*    CLOUDY    56  55  96 S3        29.90R
$$

ILZ067-068-072-073-078-083-087-091-261100-
SOUTHEAST ILLINOIS

CITY           SKY/WX    TMP DP  RH WIND       PRES   REMARKS
LAWRENCEVILLE  CLOUDY    56  54  93 S8        29.89R
FLORA*         CLOUDY    57  55  94 S6        29.87R
FAIRFIELD*     CLOUDY    55  55  97 S3        29.86S
HARRISBURG*    MOCLDY    56  55  94 S6        29.89R
ROBINSON*      CLOUDY    57  55  94 S10       29.89R
CARMI*         CLOUDY    55  55 100 SE5       29.88R
$$

ABBREVIATIONS USED IN REMARKS
   TC - TEMPERATURE IN CELSIUS
  WCI - WIND CHILL INDEX
   HX - HEAT INDEX
  VSB - VISIBILITY
$$





USA.gov is the U.S. government's official web portal to all federal, state and local government web resources and services.